sat.trackr.live / text

‹ back to catalog

COSMOS 2500 (755)

NORAD 40001 · 2014-032A

PAYLOAD ACTIVE UNKNOWN

§ Identity

Operator
Country
CIS
Launch date
2014-06-14
Launch site
PLMSC
Launch vehicle
Mass (kg)
RCS (m²)
11.32

Purposes: nav

External: N2YO · Heavens-Above · Gunter

§ Orbital elements

Epoch: 2026-09-17T22:49:23.120256Z

Period
675.73 min
Inclination
65.1732°
Eccentricity
0.0009401
Mean motion
2.13101309 rev/d
Perigee alt
19,106.0 km
Apogee alt
19,153.9 km
Semi-major
25,508.1 km
B*
0.0000e+0
RAAN
310.5189°
Arg perigee
207.5444°
Mean anomaly
152.4753°
Rev number
9,543

§ Raw data

COSMOS 2500 (755)1 40001U 14032A   26260.95096204 -.00000040  00000+0  00000+0 0  99992 40001  65.1732 310.5189 0009401 207.5444 152.4753  2.13101309 95436

JSON: /api/v1/satellites/40001 · /tle

For live sub-satellite position, see the globe view (requires WebGL).

§ Visibility from observer

Set your observer location to see the next 7 days of passes ≥ 10°. The values pass through the URL so the page stays shareable.

No JS? Fill the form by hand. The geolocation button needs JavaScript.